,,,PA_Meas_PMT16A,,PR_Meas_QMR101_102,,RH_Meas_QMH101,,SR_Meas_QMS101,,TA_Meas_QMH101,,GenWind,,GenWind,
date,time,status,PA,status,PR,status,RH,status,SR,status,TA,status,DirAvg,status,SpdAvg,
2011-12-25, 00:00:05,VALID,998.313,VALID,0,VALID,93.089,VALID,0.104696,VALID,22.919,VALID,145,VALID,1.13945,
2011-12-25, 00:01:05,VALID,998.282,VALID,0,VALID,93.0737,VALID,0,VALID,22.8995,VALID,145,VALID,0.912109,
2011-12-25, 00:02:05,VALID,998.276,VALID,0,VALID,93.028,VALID,0,VALID,22.8995,VALID,139,VALID,1.0707,
2011-12-25, 00:03:05,VALID,998.274,VALID,0,VALID,93.0814,VALID,0,VALID,22.8995,VALID,138,VALID,1.11211,
2011-12-25, 00:04:05,VALID,998.271,VALID,0,VALID,93.1271,VALID,0,VALID,22.8995,VALID,135,VALID,1.27188,
2011-12-25, 00:05:05,VALID,998.253,VALID,0,VALID,93.1805,VALID,0,VALID,22.8995,VALID,135,VALID,1.06992,
2011-12-25, 00:06:05,VALID,998.225,VALID,0,VALID,93.2263,VALID,0,VALID,22.8995,VALID,134,VALID,0.946094,
2011-12-25, 00:07:05,VALID,998.232,VALID,0,VALID,93.2721,VALID,0,VALID,22.9208,VALID,129,VALID,0.997656,
2011-12-25, 00:08:05,VALID,998.144,VALID,0,VALID,93.2874,VALID,0,VALID,22.88,VALID,124,VALID,0.991797,
2011-12-25, 00:09:05,VALID,998.163,VALID,0,VALID,93.3103,VALID,0.104696,VALID,22.88,VALID,124,VALID,0.741406,
2011-12-25, 00:10:05,VALID,998.083,VALID,0,VALID,93.3255,VALID,0,VALID,22.8818,VALID,134,VALID,1.19375,
2011-12-25, 00:11:05,VALID,998.08,VALID,0,VALID,93.3484,VALID,0,VALID,22.903,VALID,134,VALID,1.04336,
2011-12-25, 00:12:05,VALID,998.052,VALID,0,VALID,93.3484,VALID,0,VALID,22.8818,VALID,135,VALID,1.19961,
2011-12-25, 00:13:05,VALID,998.05,VALID,0,VALID,93.3255,VALID,0,VALID,22.8818,VALID,148,VALID,1.13555,
2011-12-25, 00:14:05,VALID,998.031,VALID,0,VALID,93.3255,VALID,0,VALID,22.8818,VALID,140,VALID,1.28906,
2011-12-25, 00:15:05,VALID,998.026,VALID,0,VALID,93.2645,VALID,0,VALID,22.903,VALID,144,VALID,1.1418,
2011-12-25, 00:16:05,VALID,998.032,VALID,0,VALID,93.2492,VALID,0,VALID,22.8623,VALID,137,VALID,1.10859,
2011-12-25, 00:17:05,VALID,997.983,VALID,0,VALID,93.2111,VALID,0,VALID,22.8623,VALID,136,VALID,0.956641,
2011-12-25, 00:18:04,VALID,997.98,VALID,0,VALID,93.1805,VALID,0,VALID,22.8835,VALID,136,VALID,0.628906,
2011-12-25, 00:19:04,VALID,997.967,VALID,0,VALID,93.1577,VALID,0,VALID,22.8623,VALID,136,VALID,0.352344,
2011-12-25, 00:20:04,VALID,997.919,VALID,0,VALID,93.1577,VALID,0,VALID,22.8623,VALID,136,VALID,0.397656,
2011-12-25, 00:21:04,VALID,997.945,VALID,0,VALID,93.15,VALID,0,VALID,22.8623,VALID,136,VALID,0.255078,
2011-12-25, 00:22:04,VALID,997.925,VALID,0,VALID,93.1577,VALID,0,VALID,22.864,VALID,136,VALID,0.402734,
2011-12-25, 00:23:04,VALID,997.864,VALID,0,VALID,93.15,VALID,0,VALID,22.8445,VALID,136,VALID,0.340234,
2011-12-25, 00:24:04,VALID,997.891,VALID,0,VALID,93.1653,VALID,0,VALID,22.8427,VALID,136,VALID,0.09375,
2011-12-25, 00:25:04,VALID,997.866,VALID,0,VALID,93.1729,VALID,0,VALID,22.8232,VALID,136,VALID,0.0289063,
2011-12-25, 00:26:04,VALID,997.825,VALID,0,VALID,93.1577,VALID,0,VALID,22.8037,VALID,136,VALID,0,
2011-12-25, 00:27:04,VALID,997.839,VALID,0,VALID,93.1805,VALID,0,VALID,22.8037,VALID,136,VALID,0.121875,
2011-12-25, 00:28:04,VALID,997.814,VALID,0,VALID,93.1882,VALID,0,VALID,22.7842,VALID,136,VALID,0,
2011-12-25, 00:29:04,VALID,997.791,VALID,0,VALID,93.1805,VALID,0,VALID,22.7842,VALID,136,VALID,0.105859,
2011-12-25, 00:30:04,VALID,997.754,VALID,0,VALID,93.2263,VALID,0,VALID,22.7842,VALID,136,VALID,0.305469,
2011-12-25, 00:31:04,VALID,997.813,VALID,0,VALID,93.2263,VALID,0,VALID,22.8055,VALID,136,VALID,0.357812,
2011-12-25, 00:32:04,VALID,997.785,VALID,0,VALID,93.2721,VALID,0,VALID,22.8055,VALID,136,VALID,0.194922,
2011-12-25, 00:33:04,VALID,997.786,VALID,0,VALID,93.2874,VALID,0,VALID,22.786,VALID,136,VALID,0,
2011-12-25, 00:34:04,VALID,997.773,VALID,0,VALID,93.295,VALID,0,VALID,22.7647,VALID,136,VALID,0.00390625,
2011-12-25, 00:35:04,VALID,997.771,VALID,0,VALID,93.3255,VALID,0,VALID,22.786,VALID,136,VALID,0.325,
2011-12-25, 00:36:04,VALID,997.77,VALID,0,VALID,93.3484,VALID,0,VALID,22.7647,VALID,136,VALID,0,
2011-12-25, 00:37:04,VALID,997.771,VALID,0,VALID,93.356,VALID,0,VALID,22.7452,VALID,136,VALID,0,
2011-12-25, 00:38:04,VALID,997.79,VALID,0,VALID,93.3637,VALID,0,VALID,22.7452,VALID,136,VALID,0,
2011-12-25, 00:39:04,VALID,997.789,VALID,0,VALID,93.4171,VALID,0,VALID,22.7257,VALID,136,VALID,0.18125,
2011-12-25, 00:40:04,VALID,997.784,VALID,0,VALID,93.4247,VALID,0,VALID,22.7062,VALID,136,VALID,0.373437,
2011-12-25, 00:41:04,VALID,997.782,VALID,0,VALID,93.4476,VALID,0,VALID,22.7274,VALID,136,VALID,0.318359,
2011-12-25, 00:42:04,VALID,997.77,VALID,0,VALID,93.4705,VALID,0,VALID,22.7079,VALID,136,VALID,0.276953,
2011-12-25, 00:43:04,VALID,997.761,VALID,0,VALID,93.4781,VALID,0,VALID,22.6477,VALID,136,VALID,0.376953,
2011-12-25, 00:44:04,VALID,997.736,VALID,0,VALID,93.5239,VALID,0,VALID,22.6282,VALID,136,VALID,0.258984,
2011-12-25, 00:45:04,VALID,997.683,VALID,0,VALID,93.5773,VALID,0,VALID,22.6494,VALID,136,VALID,0.333203,
2011-12-25, 00:46:04,VALID,997.678,VALID,0,VALID,93.6078,VALID,0,VALID,22.6282,VALID,136,VALID,0.241016,
2011-12-25, 00:47:04,VALID,997.649,VALID,0,VALID,93.6612,VALID,0,VALID,22.6282,VALID,136,VALID,0,
2011-12-25, 00:48:04,VALID,997.633,VALID,0,VALID,93.7223,VALID,0,VALID,22.6494,VALID,136,VALID,0,
2011-12-25, 00:49:04,VALID,997.596,VALID,0,VALID,93.7146,VALID,0,VALID,22.6494,VALID,136,VALID,0,
2011-12-25, 00:50:04,VALID,997.583,VALID,0,VALID,93.707,VALID,0,VALID,22.5892,VALID,136,VALID,0,
2011-12-25, 00:51:04,VALID,997.586,VALID,0,VALID,93.7223,VALID,0,VALID,22.6104,VALID,136,VALID,0,
2011-12-25, 00:52:04,VALID,997.587,VALID,0,VALID,93.7223,VALID,0,VALID,22.6087,VALID,136,VALID,0,
2011-12-25, 00:53:04,VALID,997.616,VALID,0,VALID,93.7757,VALID,0,VALID,22.6494,VALID,136,VALID,0,
2011-12-25, 00:54:04,VALID,997.636,VALID,0,VALID,93.7909,VALID,0,VALID,22.6689,VALID,136,VALID,0,
2011-12-25, 00:55:04,VALID,997.63,VALID,0,VALID,93.8062,VALID,0,VALID,22.6672,VALID,136,VALID,0,
2011-12-25, 00:56:04,VALID,997.623,VALID,0,VALID,93.8138,VALID,0,VALID,22.6867,VALID,136,VALID,0,
2011-12-25, 00:57:04,VALID,997.622,VALID,0,VALID,93.852,VALID,0,VALID,22.646,VALID,136,VALID,0,
2011-12-25, 00:58:04,VALID,997.599,VALID,0,VALID,93.852,VALID,0,VALID,22.6655,VALID,136,VALID,0.0878906,
2011-12-25, 00:59:04,VALID,997.615,VALID,0,VALID,93.8672,VALID,0,VALID,22.646,VALID,136,VALID,0,
2011-12-25, 01:00:04,VALID,997.615,VALID,0,VALID,93.8672,VALID,0,VALID,22.6867,VALID,136,VALID,0,
2011-12-25, 01:01:04,VALID,997.596,VALID,0,VALID,93.8672,VALID,0,VALID,22.646,VALID,136,VALID,0,
2011-12-25, 01:02:04,VALID,997.597,VALID,0,VALID,93.8672,VALID,0,VALID,22.646,VALID,136,VALID,0,
2011-12-25, 01:03:04,VALID,997.566,VALID,0,VALID,93.8672,VALID,0,VALID,22.6069,VALID,136,VALID,0,
2011-12-25, 01:04:04,VALID,997.585,VALID,0,VALID,93.8672,VALID,0,VALID,22.5874,VALID,136,VALID,0,
2011-12-25, 01:05:04,VALID,997.543,VALID,0,VALID,93.8672,VALID,0,VALID,22.5679,VALID,136,VALID,0,
2011-12-25, 01:06:04,VALID,997.533,VALID,0,VALID,93.8672,VALID,0,VALID,22.5696,VALID,136,VALID,0,
2011-12-25, 01:07:04,VALID,997.515,VALID,0,VALID,93.8977,VALID,0,VALID,22.5696,VALID,136,VALID,0,
2011-12-25, 01:08:04,VALID,997.501,VALID,0,VALID,93.8977,VALID,0,VALID,22.5501,VALID,136,VALID,0,
2011-12-25, 01:09:04,VALID,997.548,VALID,0,VALID,93.8977,VALID,0,VALID,22.5094,VALID,136,VALID,0.394531,
2011-12-25, 01:10:04,VALID,997.539,VALID,0,VALID,93.9664,VALID,0,VALID,22.5519,VALID,136,VALID,0.476172,
2011-12-25, 01:11:04,VALID,997.497,VALID,0,VALID,93.9893,VALID,0,VALID,22.5501,VALID,136,VALID,0.542578,
2011-12-25, 01:12:04,VALID,997.501,VALID,0,VALID,94.0045,VALID,0,VALID,22.5306,VALID,136,VALID,0.530469,
2011-12-25, 01:13:04,VALID,997.462,VALID,0,VALID,94.0503,VALID,0,VALID,22.5501,VALID,136,VALID,0.648828,
2011-12-25, 01:14:04,VALID,997.433,VALID,0,VALID,94.0656,VALID,0,VALID,22.5501,VALID,136,VALID,0.68125,
2011-12-25, 01:15:04,VALID,997.392,VALID,0,VALID,94.0656,VALID,0,VALID,22.5306,VALID,93,VALID,0.86875,
2011-12-25, 01:16:04,VALID,997.396,VALID,0,VALID,94.1037,VALID,0,VALID,22.5501,VALID,82,VALID,0.814453,
2011-12-25, 01:17:04,VALID,997.379,VALID,0,VALID,94.119,VALID,0,VALID,22.5306,VALID,82,VALID,0.682422,
2011-12-25, 01:18:04,VALID,997.354,VALID,0,VALID,94.1114,VALID,0,VALID,22.5323,VALID,82,VALID,0.564062,
2011-12-25, 01:19:04,VALID,997.313,VALID,0,VALID,94.1266,VALID,0,VALID,22.4916,VALID,82,VALID,0.541797,
2011-12-25, 01:20:04,VALID,997.326,VALID,0,VALID,94.1343,VALID,0,VALID,22.4933,VALID,82,VALID,0.544922,
2011-12-25, 01:21:04,VALID,997.282,VALID,0,VALID,94.1266,VALID,0,VALID,22.4933,VALID,82,VALID,0.374609,
2011-12-25, 01:22:04,VALID,997.304,VALID,0,VALID,94.1419,VALID,0,VALID,22.4738,VALID,82,VALID,0.399609,
2011-12-25, 01:23:04,VALID,997.268,VALID,0,VALID,94.1495,VALID,0,VALID,22.4738,VALID,82,VALID,0.360156,
2011-12-25, 01:24:04,VALID,997.235,VALID,0,VALID,94.1724,VALID,0,VALID,22.4738,VALID,82,VALID,0.253906,
2011-12-25, 01:25:04,VALID,997.212,VALID,0,VALID,94.18,VALID,0,VALID,22.4509,VALID,82,VALID,0.329688,
2011-12-25, 01:26:04,VALID,997.179,VALID,0,VALID,94.18,VALID,0,VALID,22.4509,VALID,82,VALID,0.403906,
2011-12-25, 01:27:04,VALID,997.189,VALID,0,VALID,94.2182,VALID,0,VALID,22.4509,VALID,82,VALID,0.276172,
2011-12-25, 01:28:04,VALID,997.174,VALID,0,VALID,94.2029,VALID,0,VALID,22.4509,VALID,82,VALID,0.252734,
2011-12-25, 01:29:04,VALID,997.206,VALID,0,VALID,94.2258,VALID,0.104696,VALID,22.4721,VALID,82,VALID,0.332422,
2011-12-25, 01:30:04,VALID,997.193,VALID,0,VALID,94.2105,VALID,0,VALID,22.4509,VALID,82,VALID,0.490625,
2011-12-25, 01:31:04,VALID,997.173,VALID,0,VALID,94.2334,VALID,0,VALID,22.4704,VALID,82,VALID,0.657422,
2011-12-25, 01:32:04,VALID,997.154,VALID,0,VALID,94.2487,VALID,0,VALID,22.4916,VALID,81,VALID,0.655859,
2011-12-25, 01:33:04,VALID,997.137,VALID,0,VALID,94.2487,VALID,0,VALID,22.4916,VALID,63,VALID,0.531641,
2011-12-25, 01:34:04,VALID,997.13,VALID,0,VALID,94.2487,VALID,0,VALID,22.5111,VALID,63,VALID,0.501172,
2011-12-25, 01:35:04,VALID,997.114,VALID,0,VALID,94.2716,VALID,0,VALID,22.4899,VALID,63,VALID,0.508203,
2011-12-25, 01:36:04,VALID,997.14,VALID,0,VALID,94.2487,VALID,0,VALID,22.5111,VALID,34,VALID,0.899609,
2011-12-25, 01:37:04,VALID,997.172,VALID,0,VALID,94.2487,VALID,0.104696,VALID,22.4704,VALID,34,VALID,1.02852,
2011-12-25, 01:38:04,VALID,997.171,VALID,0,VALID,94.2563,VALID,0.104696,VALID,22.4509,VALID,34,VALID,1.10195,
2011-12-25, 01:39:04,VALID,997.152,VALID,0,VALID,94.2487,VALID,0.104696,VALID,22.4509,VALID,49,VALID,1.22266,
2011-12-25, 01:40:04,VALID,997.133,VALID,0,VALID,94.2487,VALID,0,VALID,22.4543,VALID,48,VALID,1.36172,
2011-12-25, 01:41:04,VALID,997.101,VALID,0,VALID,94.2487,VALID,0,VALID,22.4543,VALID,52,VALID,1.28555,
2011-12-25, 01:42:04,VALID,997.11,VALID,0,VALID,94.2716,VALID,0,VALID,22.4331,VALID,52,VALID,0.986328,
2011-12-25, 01:43:04,VALID,997.065,VALID,0,VALID,94.2487,VALID,0,VALID,22.4509,VALID,51,VALID,0.809766,
2011-12-25, 01:44:04,VALID,997.031,VALID,0,VALID,94.2563,VALID,0,VALID,22.4526,VALID,51,VALID,0.653906,
2011-12-25, 01:45:04,VALID,996.98,VALID,0,VALID,94.2487,VALID,0,VALID,22.4721,VALID,51,VALID,0.551172,
2011-12-25, 01:46:04,VALID,996.991,VALID,0,VALID,94.2716,VALID,0,VALID,22.4721,VALID,51,VALID,0.484375,
2011-12-25, 01:47:04,VALID,996.947,VALID,0,VALID,94.2334,VALID,0,VALID,22.4526,VALID,51,VALID,0.396484,
2011-12-25, 01:48:04,VALID,996.92,VALID,0,VALID,94.2563,VALID,0,VALID,22.4526,VALID,51,VALID,0.496875,
2011-12-25, 01:49:04,VALID,996.93,VALID,0,VALID,94.2258,VALID,0,VALID,22.4738,VALID,51,VALID,0.578516,
2011-12-25, 01:50:04,VALID,996.932,VALID,0,VALID,94.2334,VALID,0,VALID,22.4738,VALID,51,VALID,0.496094,
2011-12-25, 01:51:04,VALID,996.958,VALID,0,VALID,94.2563,VALID,0,VALID,22.4526,VALID,51,VALID,0.29375,
2011-12-25, 01:52:04,VALID,996.933,VALID,0,VALID,94.2334,VALID,0,VALID,22.4738,VALID,51,VALID,0.421875,
2011-12-25, 01:53:04,VALID,996.937,VALID,0,VALID,94.2334,VALID,0,VALID,22.4738,VALID,51,VALID,0.350391,
2011-12-25, 01:54:04,VALID,996.911,VALID,0,VALID,94.2563,VALID,0,VALID,22.4721,VALID,51,VALID,0.504297,
2011-12-25, 01:55:04,VALID,996.946,VALID,0,VALID,94.2487,VALID,0,VALID,22.4704,VALID,51,VALID,0.362891,
2011-12-25, 01:56:04,VALID,996.893,VALID,0,VALID,94.2563,VALID,0.104696,VALID,22.4704,VALID,51,VALID,0.276563,
2011-12-25, 01:57:04,VALID,996.912,VALID,0,VALID,94.2487,VALID,0,VALID,22.4899,VALID,51,VALID,0.207031,
2011-12-25, 01:58:04,VALID,996.894,VALID,0,VALID,94.2563,VALID,0,VALID,22.4899,VALID,51,VALID,0.0734375,
2011-12-25, 01:59:04,VALID,996.878,VALID,0,VALID,94.264,VALID,0,VALID,22.5111,VALID,51,VALID,0.0996094,
2011-12-25, 02:00:04,VALID,996.89,VALID,0,VALID,94.2258,VALID,0,VALID,22.5094,VALID,51,VALID,0,
2011-12-25, 02:01:04,VALID,996.881,VALID,0,VALID,94.2487,VALID,0,VALID,22.5289,VALID,51,VALID,0,
2011-12-25, 02:02:04,VALID,996.87,VALID,0,VALID,94.264,VALID,0.104696,VALID,22.5289,VALID,51,VALID,0,
2011-12-25, 02:03:04,VALID,996.865,VALID,0,VALID,94.2411,VALID,0,VALID,22.5289,VALID,51,VALID,0.19375,
2011-12-25, 02:04:04,VALID,996.859,VALID,0,VALID,94.2716,VALID,0.104696,VALID,22.5892,VALID,76,VALID,0.428125,
2011-12-25, 02:05:04,VALID,996.864,VALID,0,VALID,94.264,VALID,0.104696,VALID,22.6069,VALID,81,VALID,0.403516,
2011-12-25, 02:06:04,VALID,996.867,VALID,0,VALID,94.2868,VALID,0,VALID,22.6477,VALID,81,VALID,0.0417969,
2011-12-25, 02:07:04,VALID,996.852,VALID,0,VALID,94.2792,VALID,0,VALID,22.646,VALID,81,VALID,0.363281,
2011-12-25, 02:08:04,VALID,996.834,VALID,0,VALID,94.2792,VALID,0,VALID,22.6672,VALID,81,VALID,0.304688,
2011-12-25, 02:09:04,VALID,996.816,VALID,0,VALID,94.2792,VALID,0,VALID,22.6672,VALID,81,VALID,0,
2011-12-25, 02:10:04,VALID,996.782,VALID,0,VALID,94.264,VALID,0,VALID,22.6655,VALID,81,VALID,0,
2011-12-25, 02:11:04,VALID,996.778,VALID,0,VALID,94.2563,VALID,0,VALID,22.6867,VALID,81,VALID,0,
2011-12-25, 02:12:04,VALID,996.752,VALID,0,VALID,94.2487,VALID,0,VALID,22.6655,VALID,81,VALID,0,
2011-12-25, 02:13:04,VALID,996.788,VALID,0,VALID,94.2411,VALID,0,VALID,22.6655,VALID,81,VALID,0,
2011-12-25, 02:14:04,VALID,996.795,VALID,0,VALID,94.2411,VALID,0,VALID,22.6655,VALID,81,VALID,0,
2011-12-25, 02:15:04,VALID,996.791,VALID,0,VALID,94.2334,VALID,0,VALID,22.6655,VALID,81,VALID,0.00546875,
2011-12-25, 02:16:04,VALID,996.8,VALID,0,VALID,94.2563,VALID,0,VALID,22.685,VALID,81,VALID,0.4,
2011-12-25, 02:17:04,VALID,996.804,VALID,0,VALID,94.2487,VALID,0,VALID,22.7045,VALID,81,VALID,0.547656,
2011-12-25, 02:18:04,VALID,996.816,VALID,0,VALID,94.2487,VALID,0,VALID,22.7062,VALID,81,VALID,0.508594,
2011-12-25, 02:19:04,VALID,996.803,VALID,0,VALID,94.2487,VALID,0,VALID,22.685,VALID,80,VALID,0.60625,
2011-12-25, 02:20:04,VALID,996.821,VALID,0,VALID,94.2182,VALID,0,VALID,22.7062,VALID,80,VALID,0.548437,
2011-12-25, 02:21:04,VALID,996.818,VALID,0,VALID,94.2334,VALID,0,VALID,22.6655,VALID,80,VALID,0.603125,
2011-12-25, 02:22:04,VALID,996.794,VALID,0,VALID,94.2105,VALID,0,VALID,22.7062,VALID,80,VALID,0.623047,
2011-12-25, 02:23:04,VALID,996.8,VALID,0,VALID,94.1877,VALID,0.104696,VALID,22.6655,VALID,47,VALID,0.816016,
2011-12-25, 02:24:04,VALID,996.799,VALID,0,VALID,94.1724,VALID,0,VALID,22.6477,VALID,36,VALID,0.863672,
2011-12-25, 02:25:04,VALID,996.808,VALID,0,VALID,94.1495,VALID,0,VALID,22.6282,VALID,34,VALID,0.769141,
2011-12-25, 02:26:04,VALID,996.812,VALID,0,VALID,94.1648,VALID,0,VALID,22.5874,VALID,34,VALID,0.537109,
2011-12-25, 02:27:04,VALID,996.815,VALID,0,VALID,94.1419,VALID,0,VALID,22.5874,VALID,34,VALID,0.643359,
2011-12-25, 02:28:04,VALID,996.787,VALID,0,VALID,94.1114,VALID,0,VALID,22.5892,VALID,34,VALID,0.589453,
2011-12-25, 02:29:04,VALID,996.812,VALID,0,VALID,94.1266,VALID,0,VALID,22.5679,VALID,34,VALID,0.611719,
2011-12-25, 02:30:04,VALID,996.798,VALID,0,VALID,94.1343,VALID,0.104696,VALID,22.5679,VALID,34,VALID,0.738281,
2011-12-25, 02:31:04,VALID,996.771,VALID,0,VALID,94.1419,VALID,0,VALID,22.5874,VALID,41,VALID,0.874609,
2011-12-25, 02:32:04,VALID,996.794,VALID,0,VALID,94.1419,VALID,0,VALID,22.5874,VALID,41,VALID,0.633984,
2011-12-25, 02:33:04,VALID,996.815,VALID,0,VALID,94.1648,VALID,0.104696,VALID,22.6087,VALID,41,VALID,0.342187,
2011-12-25, 02:34:04,VALID,996.787,VALID,0,VALID,94.1724,VALID,0.104696,VALID,22.5874,VALID,41,VALID,0.0394531,
2011-12-25, 02:35:04,VALID,996.786,VALID,0,VALID,94.1648,VALID,0,VALID,22.5874,VALID,41,VALID,0.322656,
2011-12-25, 02:36:04,VALID,996.761,VALID,0,VALID,94.1648,VALID,0.104696,VALID,22.5874,VALID,32,VALID,0.544141,
2011-12-25, 02:37:04,VALID,996.751,VALID,0,VALID,94.18,VALID,0,VALID,22.6087,VALID,31,VALID,0.589063,
2011-12-25, 02:38:04,VALID,996.733,VALID,0,VALID,94.18,VALID,0,VALID,22.6087,VALID,31,VALID,0.585547,
2011-12-25, 02:39:04,VALID,996.725,VALID,0,VALID,94.1953,VALID,0,VALID,22.6282,VALID,31,VALID,0.583203,
2011-12-25, 02:40:04,VALID,996.716,VALID,0,VALID,94.2029,VALID,0,VALID,22.6282,VALID,31,VALID,0.381641,
2011-12-25, 02:41:04,VALID,996.675,VALID,0,VALID,94.1953,VALID,0,VALID,22.6069,VALID,31,VALID,0.209375,
2011-12-25, 02:42:04,VALID,996.638,VALID,0,VALID,94.1953,VALID,0,VALID,22.6069,VALID,31,VALID,0,
2011-12-25, 02:43:04,VALID,996.664,VALID,0,VALID,94.2029,VALID,0.104696,VALID,22.6477,VALID,31,VALID,0.380859,
2011-12-25, 02:44:04,VALID,996.628,VALID,0,VALID,94.1877,VALID,0,VALID,22.6672,VALID,61,VALID,0.589844,
2011-12-25, 02:45:04,VALID,996.613,VALID,0,VALID,94.2182,VALID,0,VALID,22.6672,VALID,61,VALID,0.460156,
2011-12-25, 02:46:04,VALID,996.593,VALID,0,VALID,94.1953,VALID,0,VALID,22.6655,VALID,61,VALID,0.326953,
2011-12-25, 02:47:04,VALID,996.616,VALID,0,VALID,94.2029,VALID,0,VALID,22.6655,VALID,61,VALID,0.16875,
2011-12-25, 02:48:04,VALID,996.567,VALID,0,VALID,94.1953,VALID,0,VALID,22.685,VALID,61,VALID,0.442578,
2011-12-25, 02:49:04,VALID,996.59,VALID,0,VALID,94.1953,VALID,0,VALID,22.7062,VALID,61,VALID,0.286328,
2011-12-25, 02:50:04,VALID,996.61,VALID,0,VALID,94.1953,VALID,0,VALID,22.7062,VALID,61,VALID,0.602344,
2011-12-25, 02:51:04,VALID,996.573,VALID,0,VALID,94.1877,VALID,0,VALID,22.7257,VALID,61,VALID,0.466016,
2011-12-25, 02:52:04,VALID,996.593,VALID,0,VALID,94.1877,VALID,0,VALID,22.7452,VALID,61,VALID,0.734766,
2011-12-25, 02:53:04,VALID,996.595,VALID,0,VALID,94.1648,VALID,0,VALID,22.7435,VALID,61,VALID,0.512109,
2011-12-25, 02:54:04,VALID,996.575,VALID,0,VALID,94.1724,VALID,0.104696,VALID,22.7842,VALID,61,VALID,0.428125,
2011-12-25, 02:55:04,VALID,996.578,VALID,0,VALID,94.1724,VALID,0,VALID,22.8037,VALID,61,VALID,0.238672,
2011-12-25, 02:56:04,VALID,996.582,VALID,0,VALID,94.1495,VALID,0,VALID,22.7825,VALID,61,VALID,0.371484,
2011-12-25, 02:57:04,VALID,996.568,VALID,0,VALID,94.1571,VALID,0,VALID,22.802,VALID,61,VALID,0.109766,
2011-12-25, 02:58:04,VALID,996.565,VALID,0,VALID,94.1495,VALID,0,VALID,22.802,VALID,61,VALID,0.0972656,
2011-12-25, 02:59:04,VALID,996.581,VALID,0,VALID,94.1419,VALID,0,VALID,22.802,VALID,61,VALID,0.0230469,
2011-12-25, 03:00:04,VALID,996.583,VALID,0,VALID,94.1495,VALID,0,VALID,22.802,VALID,61,VALID,0,
2011-12-25, 03:01:04,VALID,996.587,VALID,0,VALID,94.1495,VALID,0.104696,VALID,22.8215,VALID,61,VALID,0,
2011-12-25, 03:02:04,VALID,996.562,VALID,0,VALID,94.1495,VALID,0,VALID,22.802,VALID,61,VALID,0.512109,
2011-12-25, 03:03:04,VALID,996.571,VALID,0,VALID,94.1419,VALID,0,VALID,22.802,VALID,61,VALID,0.467187,
2011-12-25, 03:04:04,VALID,996.558,VALID,0,VALID,94.1495,VALID,0,VALID,22.7825,VALID,61,VALID,0.594922,
2011-12-25, 03:05:04,VALID,996.556,VALID,0,VALID,94.1343,VALID,0,VALID,22.7825,VALID,61,VALID,0.451562,
2011-12-25, 03:06:04,VALID,996.569,VALID,0,VALID,94.1266,VALID,0,VALID,22.763,VALID,61,VALID,0.5125,
2011-12-25, 03:07:04,VALID,996.566,VALID,0,VALID,94.1419,VALID,0,VALID,22.763,VALID,61,VALID,0.509375,
2011-12-25, 03:08:04,VALID,996.548,VALID,0,VALID,94.1343,VALID,0,VALID,22.7647,VALID,61,VALID,0.475781,
2011-12-25, 03:09:04,VALID,996.545,VALID,0,VALID,94.1495,VALID,0,VALID,22.7647,VALID,61,VALID,0.3875,
2011-12-25, 03:10:04,VALID,996.575,VALID,0,VALID,94.1495,VALID,0,VALID,22.7435,VALID,61,VALID,0.447266,
2011-12-25, 03:11:04,VALID,996.582,VALID,0,VALID,94.1571,VALID,0,VALID,22.7435,VALID,61,VALID,0.3375,
2011-12-25, 03:12:04,VALID,996.587,VALID,0,VALID,94.18,VALID,0,VALID,22.7452,VALID,61,VALID,0.0121094,
2011-12-25, 03:13:04,VALID,996.595,VALID,0,VALID,94.1495,VALID,0,VALID,22.7435,VALID,61,VALID,0,
2011-12-25, 03:14:04,VALID,996.616,VALID,0,VALID,94.1877,VALID,0,VALID,22.7435,VALID,61,VALID,0.409766,
2011-12-25, 03:15:04,VALID,996.612,VALID,0,VALID,94.1953,VALID,0,VALID,22.763,VALID,61,VALID,0.316016,
2011-12-25, 03:16:04,VALID,996.659,VALID,0,VALID,94.2029,VALID,0,VALID,22.763,VALID,61,VALID,0.242188,
2011-12-25, 03:17:04,VALID,996.653,VALID,0,VALID,94.2029,VALID,0,VALID,22.8037,VALID,61,VALID,0.0226563,
2011-12-25, 03:18:04,VALID,996.667,VALID,0,VALID,94.2029,VALID,0,VALID,22.7825,VALID,61,VALID,0.071875,
2011-12-25, 03:19:04,VALID,996.663,VALID,0,VALID,94.2105,VALID,0,VALID,22.7842,VALID,61,VALID,0.151172,
2011-12-25, 03:20:04,VALID,996.667,VALID,0,VALID,94.2182,VALID,0,VALID,22.8037,VALID,61,VALID,0.282422,
2011-12-25, 03:21:04,VALID,996.616,VALID,0,VALID,94.2258,VALID,0,VALID,22.802,VALID,61,VALID,0,
2011-12-25, 03:22:04,VALID,996.657,VALID,0,VALID,94.2105,VALID,0,VALID,22.802,VALID,93,VALID,0.629297,
2011-12-25, 03:23:04,VALID,996.65,VALID,0,VALID,94.2182,VALID,0,VALID,22.8427,VALID,108,VALID,0.218359,
2011-12-25, 03:24:04,VALID,996.631,VALID,0,VALID,94.2182,VALID,0,VALID,22.8605,VALID,108,VALID,0.638672,
2011-12-25, 03:25:04,VALID,996.66,VALID,0,VALID,94.2411,VALID,0,VALID,22.8605,VALID,107,VALID,0.550391,
2011-12-25, 03:26:04,VALID,996.666,VALID,0,VALID,94.2258,VALID,0.104696,VALID,22.9208,VALID,110,VALID,0.989062,
2011-12-25, 03:27:04,VALID,996.649,VALID,0,VALID,94.2411,VALID,0,VALID,22.9403,VALID,110,VALID,0.584766,
2011-12-25, 03:28:04,VALID,996.676,VALID,0,VALID,94.2105,VALID,0,VALID,22.9385,VALID,110,VALID,0.494531,
2011-12-25, 03:29:04,VALID,996.717,VALID,0,VALID,94.2105,VALID,0,VALID,22.9385,VALID,110,VALID,0.312109,
2011-12-25, 03:30:04,VALID,996.715,VALID,0,VALID,94.2182,VALID,0.104696,VALID,22.9581,VALID,110,VALID,0.588281,
2011-12-25, 03:31:04,VALID,996.742,VALID,0,VALID,94.2105,VALID,0.104696,VALID,22.9776,VALID,110,VALID,0.344141,
2011-12-25, 03:32:04,VALID,996.758,VALID,0,VALID,94.18,VALID,0,VALID,22.9776,VALID,110,VALID,0.187891,
2011-12-25, 03:33:04,VALID,996.795,VALID,0,VALID,94.1953,VALID,0,VALID,22.9776,VALID,110,VALID,0.00820312,
2011-12-25, 03:34:04,VALID,996.826,VALID,0,VALID,94.1877,VALID,0.104696,VALID,22.9776,VALID,110,VALID,0.264062,
2011-12-25, 03:35:04,VALID,996.818,VALID,0,VALID,94.18,VALID,0,VALID,22.9776,VALID,110,VALID,0.476953,
2011-12-25, 03:36:04,VALID,996.846,VALID,0,VALID,94.1571,VALID,0.104696,VALID,22.9971,VALID,110,VALID,0.444141,
2011-12-25, 03:37:04,VALID,996.853,VALID,0,VALID,94.1571,VALID,0.104696,VALID,22.9971,VALID,109,VALID,0.511719,
2011-12-25, 03:38:04,VALID,996.858,VALID,0,VALID,94.1419,VALID,0,VALID,23.0166,VALID,109,VALID,0.439063,
2011-12-25, 03:39:04,VALID,996.834,VALID,0,VALID,94.1571,VALID,0.104696,VALID,23.0166,VALID,109,VALID,0.348828,
2011-12-25, 03:40:04,VALID,996.856,VALID,0,VALID,94.1571,VALID,0,VALID,23.0166,VALID,109,VALID,0.0453125,
2011-12-25, 03:41:04,VALID,996.834,VALID,0,VALID,94.1571,VALID,0.104696,VALID,23.0361,VALID,109,VALID,0.253516,
2011-12-25, 03:42:04,VALID,996.84,VALID,0,VALID,94.1343,VALID,0.104696,VALID,23.0361,VALID,109,VALID,0.4,
2011-12-25, 03:43:04,VALID,996.865,VALID,0,VALID,94.1419,VALID,0.104696,VALID,23.0361,VALID,109,VALID,0.378906,
2011-12-25, 03:44:04,VALID,996.882,VALID,0,VALID,94.119,VALID,0,VALID,23.0361,VALID,109,VALID,0.444922,
2011-12-25, 03:45:04,VALID,996.883,VALID,0,VALID,94.0885,VALID,0.104696,VALID,23.0556,VALID,109,VALID,0.469141,
2011-12-25, 03:46:04,VALID,996.888,VALID,0,VALID,94.0961,VALID,0.104696,VALID,23.0361,VALID,106,VALID,0.621875,